Regional Weather Roundup
Issued by NWS

Home | Current Version | Previous Version | Graphics & Text | Print | Product List | Glossary On
Versions: 1 2 3 4 5 6 7 8 9 10 11 12 13 14 15 16 17 18 19 20 21 22 23 24 25 26 27 28 29 30 31 32 33 34 35 36 37 38 39 40 41 42 43 44 45 46 47 48 49 50
000
ASUS43 KDMX 120507
RWRIA

WEATHER ROUNDUP FOR IOWA
NATIONAL WEATHER SERVICE DES MOINES IA
1200 AM CDT SAT JUL 12 2014

NOTE: "FAIR" INDICATES FEW OR NO CLOUDS BELOW 12,000 FEET WITH NO
SIGNIFICANT WEATHER AND/OR OBSTRUCTIONS TO VISIBILITY.

* - THESE STATIONS ARE NOT NWS STATIONS...THUS NOT UNDER NWS
QUALITY CONTROL.  THEY ALSO DO NOT REPORT WEATHER SUCH
AS PRECIPITATION OR FOG.

IAZ001>003-012>014-020>022-031>034-043>046-120600-
   NORTHWEST IOWA

CITY           SKY/WX    TMP DP  RH WIND       PRES   REMARKS
CARROLL *      CLEAR     70  70 100 E3        30.04F FOG
CHEROKEE *     CLOUDY    72  72 100 E6        30.01F FOG
DENISON *      CLEAR     72  72 100 E3        30.01F FOG
LE MARS *      MOCLDY    72  72 100 S3        30.03R FOG
ORANGE CITY *  CLEAR     73  70  88 NE5       30.02F FOG
SHELDON *      CLEAR     70  70 100 CALM      30.02F FOG
SIOUX CITY     TSTM      71  69  93 SW7       30.03S FOG
SPENCER        CLOUDY    71  69  93 CALM      30.04F FOG
STORM LAKE *   CLOUDY    72  72 100 SE6       30.04F FOG
$$

IAZ055>058-069>071-079>083-090>094-120600-
   SOUTHWEST IOWA

CITY           SKY/WX    TMP DP  RH WIND       PRES   REMARKS
ATLANTIC *     CLEAR     73  72  94 NE5       30.01S
AUDUBON *      PTCLDY    73  72  94 CALM      30.04F FOG
CLARINDA *     CLEAR     77  75  94 CALM      30.02S
COUNCIL BLFS *   N/A     77  75  94 E7        29.98F
CRESTON *      PTCLDY    73  73 100 SE8       30.04S
HARLAN  *      CLEAR     73  73 100 E3        30.05S
LAMONI         PTCLDY    75  73  93 E6        30.04S
RED OAK *      CLOUDY    77  75  94 SE6       29.99F
SHENANDOAH *     N/A     79  75  89 CALM      30.00F HX  82
$$

IAZ047>049-059>061-072>074-084-120600-
   CENTRAL IOWA

CITY           SKY/WX    TMP DP  RH WIND       PRES   REMARKS
AMES           CLOUDY    71  69  93 N7        30.05R FOG
ANKENY *       CLEAR     72  72 100 N6        30.03R
CHARITON *     CLOUDY    73  73 100 S6        30.04S
DES MOINES     CLOUDY    75  72  90 SE3       30.02S
GRINNELL*      CLOUDY    72  70  94 E3        30.04S
KNOXVILLE *    CLOUDY    73  72  94 SE5       30.02S
MARSHALLTOWN   CLOUDY    71  70  96 SE3       30.04S
PELLA *        CLOUDY    73  71  95 SE3       30.04S FOG
PERRY *          N/A     72  70  94 CALM      30.04S FOG
$$

IAZ004>006-015-016-023>025-035-036-120600-
   NORTH CENTRAL IOWA

CITY           SKY/WX    TMP DP  RH WIND       PRES   REMARKS
ALGONA *       CLEAR     70  70 100 S7        30.06R FOG
CLARION *      CLEAR     68  68 100 S3        30.05S
ESTHERVILLE    MOCLDY    70  68  93 S7        30.04S FOG
FORT DODGE *   CLOUDY    70  68  94 CALM      30.06S
MASON CITY     CLEAR     67  66  97 CALM      30.07R
FOREST CITY *  CLEAR     66  66 100 CALM      30.06R FOG
IOWA FALLS *     N/A     70  68  94 CALM      30.07R
$$

IAZ007>011-017>019-026>030-037>042-050>054-066-120600-
   NORTHEAST IOWA

CITY           SKY/WX    TMP DP  RH WIND       PRES   REMARKS
CEDAR RAPIDS   PTCLDY    71  68  90 SE6       30.04F
CHARLES CITY * CLEAR     70  68  94 S5        30.06S
CLINTON *      PTCLDY    72  66  83 SE7       30.10S
DECORAH *        N/A    N/A N/A N/A MISG        N/A
DUBUQUE        CLOUDY    70  67  90 S6        30.08S
MONTICELLO *   MOCLDY    72  68  88 SE7       30.05F
OELWEIN *      CLOUDY    72  72 100 SE7       30.06S
WATERLOO       CLOUDY    73  69  87 S7        30.03S
$$

IAZ064-065-067-068-078-120600-
   EAST CENTRAL IOWA

CITY           SKY/WX    TMP DP  RH WIND       PRES   REMARKS
DAVENPORT      PTCLDY    74  66  76 SE13      30.07F
IOWA CITY      PTCLDY    72  69  90 SE5       30.06S
MT. PLEASANT * CLOUDY    73  70  88 SE5       30.05F
MUSCATINE *    CLOUDY    75  68  78 CALM      30.05S
QUAD CITIES    PTCLDY    72  67  84 E5        30.06F
$$

IAZ062-063-075>077-085>089-095>099-120600-
   SOUTHEAST IOWA

CITY           SKY/WX    TMP DP  RH WIND       PRES   REMARKS
BURLINGTON     CLOUDY    75  70  84 SE7       30.05F
FAIRFIELD *    MOCLDY    72  70  94 SE6       30.05S
FORT MADISON * CLEAR     77  72  83 S8        30.06F
KEOKUK *         N/A     77  72  83 SE6       30.05S
OSKALOOSA *      N/A     72  72 100 SE6       30.04S
CENTERVILLE *  CLEAR     72  72 100 SE3       30.06F
OTTUMWA        MOCLDY    73  71  93 E3        30.04S
WASHINGTON *   PTCLDY    72  70  94 SE5       30.05S FOG
$$

ABBREVIATIONS USED IN REMARKS
   TC - TEMPERATURES IN CELSIUS
  WCI - WIND CHILL INDEX
   HX - HEAT INDEX
  VSB - VISIBILITY
$$




USA.gov is the U.S. government's official web portal to all federal, state and local government web resources and services.